1509426000.79,916,7.13,72472.8,-15.39,-17.35,-17.45,0,*67
1509426002.07,917,7.06,72490.3,-15.39,-17.45,-17.79,0,*6E
1509426003.34,918,7.06,72516.3,-15.39,-17.79,-17.93,0,*6A
1509426004.59,919,7.06,72492.8,-15.39,-17.73,-17.59,0,*67
1509426005.82,920,7.06,72496.8,-15.39,-17.73,-17.35,0,*67
1509426007.1,921,7.06,72490.8,-15.39,-17.45,-17.17,0,*63
1509426008.38,922,7.06,72500.8,-15.39,-17.45,-17.25,0,*61
1509426009.66,923,7.06,72518.0,-15.39,-17.03,-17.11,0,*65
1509426010.95,924,7.06,72522.8,-15.39,-17.03,-17.03,0,*61
1509426012.22,925,7.06,72542.3,-15.39,-17.11,-17.11,0,*60
1509426013.5,926,7.13,72530.8,-15.39,-17.11,-17.17,0,*65
1509426014.72,927,7.06,72526.5,-15.37,-17.25,-17.31,0,*69
1509426015.97,928,7.06,72504.0,-15.37,-17.63,-17.93,0,*6C
1509426017.19,929,7.06,72510.0,-15.37,-17.93,-18.17,0,*61
1509426018.42,930,7.06,72504.5,-15.37,-18.01,-18.21,0,*68
1509426019.63,931,7.06,72514.3,-15.37,-18.41,-18.49,0,*63
1509426020.88,932,7.06,72534.8,-15.35,-18.59,-18.65,0,*65
1509426022.14,933,7.06,72530.0,-15.35,-18.93,-18.73,0,*65
1509426023.39,934,7.06,72536.3,-15.35,-18.93,-18.73,0,*62
1509426024.64,935,7.06,72538.3,-15.35,-18.89,-18.65,0,*6F
1509426025.87,936,7.13,72554.8,-15.37,-18.83,-18.55,0,*67
1509426027.12,937,7.13,72568.5,-15.35,-18.79,-18.35,0,*67
1509426028.38,938,7.13,72548.0,-15.35,-18.79,-18.31,0,*6C
1509426029.61,939,7.06,72544.3,-15.37,-18.59,-18.25,0,*68
1509426030.86,940,7.06,72534.0,-15.35,-18.79,-18.35,0,*67
1509426032.09,941,7.06,72538.0,-15.35,-18.79,-18.45,0,*61
1509426033.31,942,7.06,72552.3,-15.37,-18.55,-18.25,0,*68
1509426034.54,943,7.06,72514.8,-15.37,-18.25,-18.01,0,*68
1509426035.75,944,7.06,72458.0,-15.37,-18.21,-18.07,0,*6D
1509426037.0,945,7.06,72452.5,-15.35,-18.17,-18.01,0,*6D
1509426038.2,946,7.06,72398.5,-15.37,-18.25,-18.07,0,*6B
1509426039.49,947,7.06,72388.3,-15.35,-18.35,-18.31,0,*6C
1509426040.75,948,7.06,72452.0,-15.35,-18.35,-18.11,0,*61
1509426042.03,949,7.06,72462.0,-15.35,-18.31,-18.35,0,*62
1509426043.24,950,7.06,72530.0,-15.37,-18.17,-18.07,0,*6D
1509426044.44,951,7.06,72458.8,-15.37,-18.41,-18.17,0,*6E
1509426045.65,952,7.06,72478.5,-15.37,-17.83,-17.69,0,*6A
1509426046.87,953,7.06,72516.8,-15.37,-18.07,-17.93,0,*6D
1509426048.12,954,7.06,72516.0,-15.35,-18.07,-17.93,0,*68
1509426049.41,955,7.06,72520.0,-15.35,-18.35,-18.31,0,*6F
1509426050.63,956,7.06,72530.0,-15.37,-18.35,-18.25,0,*6B
1509426051.84,957,7.06,72546.3,-15.37,-18.49,-18.49,0,*6B
1509426053.04,958,7.06,72552.3,-15.37,-18.65,-18.65,0,*64
1509426054.29,959,7.06,72550.0,-15.39,-18.49,-18.35,0,*60
1509426055.52,960,7.06,72554.5,-15.39,-18.65,-18.79,0,*6C
1509426056.77,961,7.06,72540.0,-15.35,-18.89,-18.73,0,*69
1509426058.0,962,7.06,72534.8,-15.37,-19.13,-18.93,0,*64
1509426059.21,963,7.06,72512.5,-15.37,-19.13,-18.83,0,*64
1509426060.44,964,7.06,72522.3,-15.39,-18.99,-18.49,0,*68
1509426061.69,965,7.06,72514.3,-15.39,-18.65,-18.35,0,*61
1509426062.9,966,7.06,72528.3,-15.37,-18.49,-18.21,0,*67
1509426064.17,967,7.06,72510.3,-15.39,-18.55,-18.35,0,*60
1509426065.4,968,7.06,72504.3,-15.39,-18.69,-18.25,0,*61
1509426066.62,969,7.06,72488.3,-15.39,-18.49,-18.21,0,*66
1509426067.87,970,7.06,72504.3,-15.39,-18.55,-18.17,0,*66
1509426069.11,971,7.06,72496.5,-15.37,-18.79,-18.35,0,*67
1509426070.31,972,7.06,72494.8,-15.41,-18.73,-18.21,0,*6A
1509426071.57,973,7.06,72498.3,-15.39,-18.35,-17.87,0,*65
1509426072.82,974,7.06,72500.5,-15.39,-18.25,-17.93,0,*66
1509426074.09,975,7.06,72494.3,-15.39,-17.93,-17.63,0,*6A
1509426075.33,976,7.06,72468.8,-15.41,-17.83,-17.63,0,*67
1509426076.55,977,7.06,72458.5,-15.39,-17.35,-17.31,0,*63
1509426077.78,978,7.06,72460.3,-15.41,-17.31,-17.17,0,*63
1509426079.07,979,7.06,72480.3,-15.39,-17.17,-17.03,0,*6C
1509426080.33,980,7.06,72442.3,-15.41,-17.21,-17.07,0,*64
1509426081.58,981,7.06,72486.0,-15.39,-17.03,-16.89,0,*6D
1509426082.84,982,7.06,72458.5,-15.41,-17.17,-17.17,0,*62
1509426084.12,983,7.06,72494.5,-15.39,-17.25,-17.25,0,*6C
1509426085.35,984,7.06,72506.5,-15.39,-17.35,-17.31,0,*6F
1509426086.59,985,7.06,72460.3,-15.39,-17.31,-17.17,0,*6E
1509426087.88,986,7.06,72450.8,-15.39,-17.17,-17.03,0,*6C
1509426089.13,987,7.06,72522.3,-15.39,-17.11,-16.89,0,*68
1509426090.4,988,7.06,72494.8,-15.39,-17.11,-17.03,0,*64
1509426091.63,989,7.06,72490.3,-15.41,-17.31,-17.17,0,*6D
1509426092.89,990,7.06,72504.3,-15.37,-17.17,-17.03,0,*65
1509426094.15,991,7.06,72508.8,-15.37,-17.25,-17.03,0,*65
1509426095.42,992,7.06,72512.3,-15.35,-17.11,-17.21,0,*63
1509426096.64,993,7.06,72514.8,-15.37,-17.35,-17.35,0,*63
1509426097.84,994,7.06,72546.5,-15.37,-17.35,-17.31,0,*60
1509426099.06,995,7.06,72526.5,-15.35,-17.31,-17.31,0,*67
1509426100.35,996,7.06,72550.3,-15.35,-17.45,-17.41,0,*60
1509426101.55,997,7.06,72570.8,-15.37,-17.49,-17.49,0,*67
1509426102.78,998,7.06,72574.3,-15.35,-17.73,-17.69,0,*61
1509426103.98,999,7.06,72564.8,-15.37,-17.87,-17.73,0,*62
1509426105.21,1000,7.06,72554.5,-15.35,-17.87,-17.73,0,*58
1509426106.48,1001,7.06,72526.0,-15.35,-17.97,-17.83,0,*57
1509426107.71,1002,7.06,72540.8,-15.37,-18.17,-17.93,0,*50
1509426108.94,1003,7.06,72564.5,-15.35,-18.11,-17.69,0,*50
1509426110.2,1004,7.06,72526.3,-15.35,-17.73,-17.59,0,*5F
1509426111.46,1005,7.06,72452.5,-15.35,-17.97,-17.73,0,*5C
1509426112.72,1006,7.06,72492.8,-15.35,-17.83,-17.55,0,*5E
1509426113.96,1007,7.06,72474.3,-15.37,-18.07,-17.79,0,*50
1509426115.19,1008,7.06,72490.0,-15.35,-17.87,-17.69,0,*5B
1509426116.45,1009,7.06,72488.5,-15.37,-17.93,-17.63,0,*57
1509426117.71,1010,7.06,72480.8,-15.35,-17.97,-17.73,0,*58
1509426118.97,1011,7.06,72498.5,-15.35,-18.01,-17.87,0,*52
1509426120.26,1012,7.06,72474.8,-15.35,-18.01,-17.97,0,*50
1509426121.5,1013,7.06,72472.5,-15.35,-18.17,-18.11,0,*57
1509426122.76,1014,7.06,72476.5,-15.35,-18.31,-18.45,0,*55
1509426123.97,1015,7.06,72476.0,-15.37,-18.65,-18.83,0,*5D
1509426125.22,1016,7.06,72492.3,-15.31,-19.03,-18.93,0,*58
1509426126.48,1017,7.06,72512.5,-15.35,-19.27,-19.07,0,*57
1509426127.71,1018,7.06,72500.8,-15.37,-19.41,-18.83,0,*57
1509426128.95,1019,7.06,72496.0,-15.37,-19.23,-18.41,0,*5C
1509426130.21,1020,7.06,72510.8,-15.39,-18.83,-17.79,0,*57
1509426131.46,1021,7.06,72516.3,-15.39,-18.07,-17.25,0,*53
1509426132.73,1022,7.06,72522.0,-15.39,-17.35,-17.11,0,*59
1509426133.99,1023,7.06,72524.8,-15.39,-17.17,-16.89,0,*58
1509426135.24,1024,7.06,72522.5,-15.39,-17.03,-16.89,0,*5A
1509426136.48,1025,7.06,72506.8,-15.39,-16.89,-16.97,0,*57
1509426137.74,1026,7.06,72532.0,-15.39,-16.89,-17.11,0,*5B
1509426138.98,1027,7.06,72510.0,-15.41,-17.17,-17.31,0,*51
1509426140.21,1028,7.06,72522.8,-15.41,-17.31,-17.41,0,*5D
1509426141.5,1029,7.06,72522.3,-15.39,-17.45,-17.45,0,*54
1509426142.78,1030,7.06,72554.0,-15.39,-17.63,-17.45,0,*58
1509426144.06,1031,7.06,72490.3,-15.39,-17.63,-17.45,0,*59
1509426145.32,1032,7.06,72532.8,-15.39,-17.31,-17.03,0,*5F
1509426146.61,1033,7.06,72536.0,-15.39,-17.17,-17.03,0,*5A
1509426147.84,1034,7.06,72504.8,-15.41,-17.07,-16.89,0,*50
1509426149.08,1035,7.06,72480.5,-15.39,-16.97,-16.83,0,*5C
1509426150.31,1036,7.06,72490.0,-15.39,-16.75,-16.89,0,*59
1509426151.57,1037,7.06,72460.5,-15.39,-16.83,-17.11,0,*51
1509426152.83,1038,7.06,72458.0,-15.39,-17.11,-17.35,0,*52
1509426154.07,1039,7.06,72462.3,-15.37,-17.35,-17.63,0,*58
1509426155.34,1040,7.06,72466.0,-15.37,-17.45,-17.59,0,*58
1509426156.6,1041,7.06,72474.8,-15.37,-17.93,-17.93,0,*54
1509426157.83,1042,7.06,72460.0,-15.37,-18.35,-18.21,0,*52
1509426159.06,1043,7.06,72466.0,-15.37,-18.35,-18.41,0,*55
1509426160.32,1044,7.06,72478.0,-15.39,-18.55,-18.65,0,*5C
1509426161.58,1045,7.06,72464.3,-15.39,-18.35,-18.41,0,*5D
1509426162.81,1046,7.06,72474.3,-15.39,-18.49,-18.49,0,*5D
1509426164.04,1047,7.06,72486.5,-15.39,-18.69,-18.41,0,*56
1509426165.27,1048,7.06,72496.5,-15.41,-18.89,-18.41,0,*58
1509426166.51,1049,7.06,72500.0,-15.41,-18.45,-17.93,0,*59
1509426167.77,1050,7.06,72506.8,-15.39,-18.07,-17.45,0,*53
1509426169.05,1051,7.06,72488.5,-15.39,-17.93,-17.45,0,*50
1509426170.29,1052,7.06,72482.5,-15.39,-17.49,-17.35,0,*53
1509426171.53,1053,7.06,72474.0,-15.41,-17.35,-17.21,0,*53
1509426172.82,1054,7.06,72456.3,-15.39,-17.25,-17.17,0,*5F
1509426174.05,1055,7.06,72460.5,-15.41,-17.21,-17.31,0,*51
1509426175.33,1056,7.06,72476.8,-15.41,-17.21,-17.07,0,*57
1509426176.59,1057,7.06,72462.0,-15.41,-17.07,-17.17,0,*53
1509426177.86,1058,7.06,72464.5,-15.41,-17.17,-17.21,0,*58
1509426179.12,1059,7.06,72482.0,-15.41,-17.07,-17.17,0,*5D
1509426180.39,1060,7.06,72492.3,-15.41,-17.03,-17.03,0,*56
1509426181.63,1061,7.06,72474.0,-15.41,-16.93,-17.07,0,*5B
1509426182.86,1062,7.06,72496.3,-15.41,-16.93,-17.03,0,*5C
1509426184.13,1063,7.06,72504.0,-15.41,-17.03,-17.21,0,*55
1509426185.41,1064,7.06,72516.5,-15.39,-17.11,-17.17,0,*5B
1509426186.64,1065,7.06,72522.3,-15.41,-17.31,-17.63,0,*54
1509426187.9,1066,7.06,72502.8,-15.39,-17.73,-17.79,0,*55
1509426189.14,1067,7.06,72512.5,-15.41,-17.97,-18.07,0,*57
1509426190.36,1068,7.06,72518.0,-15.41,-18.11,-18.11,0,*5E
1509426191.57,1069,7.06,72508.8,-15.41,-18.21,-18.11,0,*5C
1509426192.79,1070,7.06,72516.5,-15.41,-18.41,-18.21,0,*51
1509426194.02,1071,7.06,72516.3,-15.41,-18.55,-18.41,0,*53
1509426195.27,1072,7.06,72516.3,-15.39,-18.93,-18.79,0,*5E
1509426196.52,1073,7.06,72532.8,-15.41,-19.27,-18.99,0,*50
1509426197.73,1074,7.06,72500.8,-15.41,-19.37,-19.03,0,*54
1509426198.96,1075,7.06,72514.0,-15.43,-19.03,-18.73,0,*56
1509426200.23,1076,7.06,72530.3,-15.43,-18.83,-18.31,0,*5A
1509426201.48,1077,7.06,72508.5,-15.43,-19.03,-18.89,0,*51
1509426202.71,1078,7.06,72528.5,-15.43,-19.03,-18.69,0,*50
1509426203.97,1079,7.06,72506.5,-15.43,-19.37,-18.89,0,*58
1509426205.23,1080,7.06,72512.3,-15.43,-19.27,-19.03,0,*5C
1509426206.5,1081,7.06,72490.3,-15.43,-18.69,-18.31,0,*56
1509426207.76,1082,7.06,72500.5,-15.45,-18.59,-18.31,0,*50
1509426209.0,1083,7.06,72492.3,-15.43,-18.41,-18.21,0,*5F
1509426210.23,1084,7.06,72534.3,-15.43,-18.45,-18.07,0,*58
1509426211.5,1085,7.06,72534.0,-15.45,-18.35,-17.97,0,*5E
1509426212.74,1086,7.06,72532.8,-15.43,-18.21,-17.87,0,*5F
1509426213.99,1087,7.06,72512.8,-15.43,-18.11,-17.79,0,*5C
1509426215.28,1088,7.06,72544.0,-15.43,-17.97,-17.63,0,*59
1509426216.52,1089,7.06,72504.5,-15.45,-18.01,-17.87,0,*54
1509426217.73,1090,7.06,72490.8,-15.45,-17.87,-17.69,0,*5D
1509426218.96,1091,7.06,72506.0,-15.45,-17.69,-17.55,0,*53
1509426220.2,1092,7.06,72504.8,-15.45,-17.59,-17.69,0,*5C
1509426221.49,1093,7.06,72454.0,-15.43,-17.97,-17.97,0,*58
1509426222.73,1094,7.06,72446.3,-15.43,-18.11,-18.11,0,*5F
1509426223.96,1095,7.06,72444.5,-15.43,-18.11,-18.11,0,*5E
1509426225.17,1096,7.06,72462.5,-15.45,-18.25,-18.17,0,*5A
1509426226.41,1097,7.06,72456.3,-15.43,-18.25,-18.11,0,*5B
1509426227.61,1098,7.06,72460.0,-15.45,-18.25,-18.17,0,*54
1509426228.84,1099,7.06,72476.3,-15.43,-18.25,-18.25,0,*52
1509426230.1,1100,7.06,72496.8,-15.43,-18.31,-18.41,0,*54
1509426231.35,1101,7.06,72504.3,-15.43,-18.59,-18.69,0,*51
1509426232.6,1102,7.06,72504.3,-15.43,-18.89,-18.83,0,*5B
1509426233.83,1103,7.06,72456.3,-15.43,-18.99,-18.83,0,*5B
1509426235.08,1104,7.06,72474.0,-15.45,-18.89,-18.89,0,*51
1509426236.32,1105,7.06,72460.3,-15.43,-19.13,-18.99,0,*55
1509426237.55,1106,7.06,72508.5,-15.45,-19.23,-19.03,0,*51
1509426238.79,1107,7.06,72494.5,-15.45,-19.71,-19.41,0,*51
1509426240.04,1108,7.06,72466.8,-15.45,-19.71,-19.57,0,*59
1509426241.3,1109,7.06,72416.8,-15.43,-19.31,-19.17,0,*5E
1509426242.53,1110,7.06,72424.0,-15.45,-18.89,-18.79,0,*5B
1509426243.76,1111,7.06,72404.5,-15.45,-18.65,-18.35,0,*50
1509426245.0,1112,7.06,72438.3,-15.45,-18.59,-18.45,0,*5B
1509426246.23,1113,7.06,72480.0,-15.45,-18.01,-17.73,0,*5D
1509426247.47,1114,7.06,72504.0,-15.45,-17.35,-17.55,0,*56
1509426248.73,1115,7.06,72534.5,-15.45,-17.93,-18.35,0,*52
1509426249.94,1116,7.06,72504.3,-15.45,-19.17,-19.03,0,*57
1509426251.2,1117,7.06,72484.8,-15.43,-19.31,-19.13,0,*55
1509426252.47,1118,7.06,72490.3,-15.45,-19.65,-19.41,0,*5A
1509426253.72,1119,7.06,72514.3,-15.45,-19.85,-19.81,0,*59
1509426254.94,1120,7.06,72454.8,-15.45,-19.99,-19.99,0,*57
1509426256.15,1121,7.06,72436.3,-15.45,-19.99,-19.95,0,*5A
1509426257.36,1122,7.06,72446.0,-15.45,-20.09,-19.95,0,*5A
1509426258.59,1123,7.06,72456.3,-15.45,-20.79,-20.29,0,*51
1509426259.83,1124,7.06,72472.8,-15.49,-20.69,-20.19,0,*58
1509426261.05,1125,7.06,72414.0,-15.49,-20.69,-20.39,0,*5B
1509426262.32,1126,7.06,72454.5,-15.47,-21.03,-20.69,0,*5E
1509426263.55,1127,7.06,72472.5,-15.49,-20.69,-20.19,0,*5B
1509426264.78,1128,7.06,72484.0,-15.49,-19.85,-19.07,0,*59
1509426266.05,1129,7.06,72472.8,-15.49,-18.93,-18.35,0,*5E
1509426267.31,1130,7.06,72458.8,-15.49,-18.35,-17.93,0,*59
1509426268.55,1131,7.06,72442.3,-15.49,-18.31,-18.17,0,*5F
1509426269.76,1132,7.06,72444.5,-15.49,-18.49,-18.21,0,*56
1509426270.98,1133,7.06,72446.8,-15.49,-18.21,-18.07,0,*5D
1509426272.2,1134,7.06,72438.8,-15.49,-18.07,-17.87,0,*59
1509426273.43,1135,7.06,72446.3,-15.47,-17.83,-17.73,0,*5E
1509426274.67,1136,7.06,72426.0,-15.47,-17.83,-18.11,0,*56
1509426275.91,1137,7.06,72418.8,-15.49,-17.93,-18.17,0,*5E
1509426277.15,1138,7.06,72430.5,-15.49,-17.87,-18.01,0,*53
1509426278.41,1139,7.06,72434.5,-15.49,-18.35,-18.35,0,*53
1509426279.66,1140,7.06,72498.5,-15.49,-18.21,-18.35,0,*58
1509426280.87,1141,7.06,72440.0,-15.49,-18.83,-19.13,0,*54
1509426282.11,1142,7.06,72520.5,-15.49,-19.47,-19.61,0,*5B
1509426283.36,1143,7.06,72530.3,-15.47,-19.81,-19.51,0,*5D
1509426284.62,1144,7.06,72540.8,-15.47,-19.85,-19.51,0,*5E
1509426285.86,1145,7.06,72556.3,-15.49,-19.91,-19.61,0,*57
1509426287.1,1146,7.06,72486.3,-15.49,-19.61,-18.99,0,*5D
1509426288.3,1147,7.06,72496.0,-15.49,-19.07,-18.79,0,*52
1509426289.51,1148,7.06,72490.0,-15.49,-19.07,-18.83,0,*58
1509426290.75,1149,7.06,72510.3,-15.49,-18.35,-18.17,0,*54
1509426291.99,1150,7.06,72518.5,-15.49,-18.17,-18.31,0,*58
1509426293.25,1151,7.06,72518.8,-15.47,-18.31,-18.79,0,*5F
1509426294.46,1152,7.06,72542.3,-15.49,-19.07,-19.71,0,*5F
1509426295.71,1153,7.06,72510.0,-15.47,-19.95,-20.59,0,*5B
1509426296.95,1154,7.06,72538.5,-15.49,-20.79,-20.93,0,*5C
1509426298.16,1155,7.06,72518.8,-15.49,-21.13,-21.13,0,*59
1509426299.4,1156,7.06,72504.5,-15.49,-22.07,-22.17,0,*5B
1509426300.63,1157,7.06,72510.0,-15.49,-22.31,-22.07,0,*5E
1509426301.84,1158,7.06,72504.8,-15.49,-22.03,-22.07,0,*50
1509426303.11,1159,7.06,72488.8,-15.51,-22.41,-22.31,0,*5B
1509426304.32,1160,7.06,72500.0,-15.53,-22.67,-22.53,0,*53
1509426305.56,1161,7.06,72478.3,-15.53,-22.73,-22.37,0,*55
1509426306.81,1162,7.06,72488.8,-15.53,-22.37,-22.17,0,*54
1509426308.03,1163,7.06,72510.5,-15.51,-22.03,-21.73,0,*51
1509426309.27,1164,7.06,72478.3,-15.53,-21.63,-21.57,0,*57
1509426310.56,1165,7.06,72482.5,-15.51,-22.17,-22.21,0,*56
1509426311.8,1166,7.06,72498.0,-15.53,-22.31,-22.07,0,*57
1509426313.02,1167,7.06,72514.0,-15.53,-22.57,-22.41,0,*54
1509426314.26,1168,7.06,72512.0,-15.53,-22.73,-22.57,0,*5A
1509426315.48,1169,7.06,72462.5,-15.53,-22.57,-22.07,0,*58
1509426316.73,1170,7.06,72486.8,-15.59,-21.97,-21.97,0,*5F
1509426317.96,1171,7.06,72478.0,-15.59,-22.87,-22.47,0,*52
1509426319.22,1172,7.06,72478.8,-15.57,-22.47,-22.27,0,*55
1509426320.45,1173,7.06,72496.0,-15.59,-22.37,-22.21,0,*5B
1509426321.69,1174,7.06,72500.5,-15.59,-22.47,-22.11,0,*58
1509426322.89,1175,7.06,72492.8,-15.59,-22.11,-21.93,0,*53
1509426324.19,1176,7.06,72520.3,-15.61,-21.87,-21.23,0,*5C
1509426325.43,1177,7.06,72484.8,-15.61,-21.17,-20.59,0,*58
1509426326.68,1178,7.06,72486.0,-15.61,-20.43,-19.95,0,*5D
1509426327.95,1179,7.06,72504.5,-15.61,-19.95,-19.57,0,*53
1509426329.21,1180,7.06,72490.0,-15.63,-19.81,-19.57,0,*52
1509426330.44,1181,7.06,72448.8,-15.61,-20.09,-19.99,0,*59
1509426331.71,1182,7.06,72428.3,-15.61,-20.43,-20.49,0,*53
1509426332.97,1183,7.06,72490.3,-15.61,-20.93,-21.23,0,*52
1509426334.27,1184,7.06,72538.5,-15.61,-21.33,-21.23,0,*5E
1509426335.53,1185,7.06,72512.3,-15.61,-21.67,-21.43,0,*58
1509426336.79,1186,7.06,72540.8,-15.61,-21.73,-21.33,0,*59
1509426338.06,1187,7.06,72532.0,-15.61,-20.93,-20.49,0,*5B
1509426339.3,1188,7.06,72554.8,-15.63,-21.03,-20.93,0,*59
1509426340.56,1189,7.06,72516.0,-15.61,-21.23,-21.17,0,*55
1509426341.8,1190,7.06,72500.5,-15.61,-21.73,-22.03,0,*5E
1509426343.06,1191,7.06,72540.5,-15.61,-22.63,-22.77,0,*5E
1509426344.27,1192,7.06,72552.5,-15.63,-23.09,-22.83,0,*59
1509426345.51,1193,7.06,72536.8,-15.63,-22.83,-22.47,0,*53
1509426346.78,1194,7.06,72554.3,-15.63,-22.17,-21.87,0,*56
1509426347.99,1195,7.06,72478.8,-15.63,-21.43,-21.39,0,*50
1509426349.26,1196,7.06,72480.0,-15.63,-21.57,-21.67,0,*5D
1509426350.51,1197,7.06,72496.0,-15.63,-21.83,-21.97,0,*5A
1509426351.75,1198,7.06,72516.3,-15.63,-22.63,-22.31,0,*57
1509426352.97,1199,7.06,72518.8,-15.63,-23.13,-22.97,0,*5C
1509426354.25,1200,7.06,72532.0,-15.65,-23.33,-23.29,0,*5F
1509426355.54,1201,7.06,72548.8,-15.65,-23.53,-23.29,0,*58
1509426356.78,1202,7.06,72550.3,-15.67,-23.79,-23.19,0,*52
1509426358.05,1203,7.06,72532.5,-15.65,-23.03,-22.97,0,*5B
1509426359.28,1204,7.06,72514.0,-15.67,-23.19,-23.13,0,*58
1509426360.52,1205,7.06,72530.8,-15.67,-23.65,-23.43,0,*57
1509426361.8,1206,7.06,72530.5,-15.65,-23.69,-23.29,0,*56
1509426363.05,1207,7.06,72518.0,-15.67,-23.43,-23.03,0,*55
1509426364.3,1208,7.06,72488.8,-15.69,-23.69,-22.41,0,*5B
1509426365.54,1209,7.06,72494.5,-15.69,-22.93,-21.17,0,*5E
1509426366.83,1210,7.06,72492.8,-15.69,-21.03,-19.31,0,*53
1509426368.07,1211,7.06,72488.3,-15.69,-18.99,-18.49,0,*55
1509426369.36,1212,7.06,72502.3,-15.69,-18.89,-19.27,0,*5E
1509426370.59,1213,7.06,72486.8,-15.69,-20.05,-20.73,0,*5B
1509426371.83,1214,7.06,72472.0,-15.69,-21.17,-22.07,0,*5F
1509426373.07,1215,7.06,72490.3,-15.71,-22.57,-22.73,0,*53
1509426374.32,1216,7.06,72496.8,-15.69,-23.09,-23.09,0,*5F
1509426375.59,1217,7.06,72514.5,-15.69,-23.19,-23.09,0,*5F
1509426376.88,1218,7.06,72512.8,-15.69,-23.49,-23.19,0,*54
1509426378.15,1219,7.06,72478.8,-15.69,-23.75,-23.49,0,*5F
1509426379.39,1220,7.06,72502.3,-15.69,-23.75,-23.39,0,*52
1509426380.62,1221,7.06,72524.0,-15.71,-23.85,-23.39,0,*55
1509426381.89,1222,7.06,72492.5,-15.69,-23.49,-23.09,0,*5C
1509426383.11,1223,7.0,72474.3,-15.71,-22.93,-22.57,0,*58
1509426384.34,1224,7.06,72468.5,-15.71,-23.03,-22.57,0,*57
1509426385.58,1225,7.06,72478.5,-15.71,-23.23,-23.09,0,*5E
1509426386.79,1226,7.06,72492.5,-15.71,-23.59,-23.39,0,*53
1509426388.03,1227,7.06,72472.0,-15.71,-23.85,-23.39,0,*53
1509426389.29,1228,7.06,72448.0,-15.73,-23.75,-23.29,0,*50
1509426390.56,1229,7.06,72452.0,-15.73,-23.29,-22.93,0,*58
1509426391.79,1230,7.06,72470.3,-15.75,-23.29,-23.13,0,*5F
1509426393.06,1231,7.06,72466.5,-15.73,-23.29,-22.57,0,*59
1509426394.3,1232,7.06,72466.0,-15.73,-21.73,-20.59,0,*5B
1509426395.54,1233,7.06,72470.3,-15.73,-19.95,-19.51,0,*5B
1509426396.75,1234,7.06,72466.3,-15.75,-19.37,-19.07,0,*51
1509426398.04,1235,7.06,72404.0,-15.73,-19.31,-18.93,0,*5C
1509426399.28,1236,7.06,72428.3,-15.73,-19.37,-18.73,0,*57
1509426400.52,1237,7.06,72406.5,-15.73,-18.79,-18.41,0,*5C
1509426401.78,1238,7.06,72454.3,-15.73,-18.55,-18.45,0,*59
1509426403.05,1239,7.06,72508.0,-15.73,-18.45,-18.31,0,*5A
1509426404.29,1240,7.06,72542.3,-15.71,-18.83,-18.35,0,*58
1509426405.51,1241,7.06,72502.3,-15.71,-18.83,-18.11,0,*5F
1509426406.72,1242,7.06,72492.5,-15.71,-18.41,-18.07,0,*55
1509426407.93,1243,7.06,72496.3,-15.71,-18.25,-18.21,0,*52
1509426409.21,1244,7.06,72506.3,-15.69,-17.97,-18.11,0,*59
1509426410.44,1245,7.06,72468.8,-15.71,-17.93,-18.07,0,*52
1509426411.71,1246,7.06,72494.0,-15.69,-18.11,-18.35,0,*5C
1509426412.97,1247,7.06,72464.8,-15.69,-18.25,-18.55,0,*5C
1509426414.18,1248,7.06,72460.0,-15.71,-18.69,-19.17,0,*55
1509426415.45,1249,7.06,72486.5,-15.69,-18.73,-19.41,0,*55
1509426416.74,1250,7.06,72508.3,-15.69,-19.31,-20.35,0,*53
1509426418.0,1251,7.06,72508.0,-15.69,-20.05,-20.53,0,*5F
1509426419.27,1252,7.06,72496.3,-15.69,-20.25,-20.49,0,*55
1509426420.51,1253,7.06,72482.0,-15.69,-20.73,-20.69,0,*55
1509426421.78,1254,7.06,72496.0,-15.69,-21.13,-20.53,0,*5C
1509426423.03,1255,7.06,72498.8,-15.67,-20.35,-19.61,0,*5D
1509426424.26,1256,7.06,72496.5,-15.67,-19.75,-19.23,0,*56
1509426425.56,1257,7.06,72510.8,-15.69,-19.27,-18.89,0,*5F
1509426426.8,1258,7.06,72512.0,-15.69,-18.83,-18.69,0,*51
1509426428.04,1259,7.06,72502.3,-15.69,-18.69,-18.69,0,*54
1509426429.29,1260,7.06,72516.0,-15.69,-18.49,-18.59,0,*5F
1509426430.53,1261,7.06,72500.5,-15.67,-18.55,-19.13,0,*52
1509426431.77,1262,7.06,72534.8,-15.67,-18.93,-19.75,0,*5B
1509426433.0,1263,7.06,72524.0,-15.67,-19.51,-20.15,0,*59
1509426434.22,1264,7.06,72512.8,-15.67,-19.99,-20.29,0,*55
1509426435.42,1265,7.06,72506.8,-15.67,-20.29,-20.05,0,*5B
1509426436.65,1266,7.06,72504.0,-15.67,-20.19,-19.75,0,*56
1509426437.9,1267,7.0,72500.5,-15.67,-19.57,-19.37,0,*51
1509426439.14,1268,7.06,72536.8,-15.67,-19.37,-19.23,0,*5D
1509426440.35,1269,7.06,72552.8,-15.67,-19.07,-19.13,0,*5C
1509426441.59,1270,7.06,72556.3,-15.67,-19.07,-19.27,0,*53
1509426442.85,1271,7.06,72548.5,-15.67,-19.41,-19.41,0,*50
1509426444.07,1272,7.06,72550.3,-15.67,-19.37,-18.65,0,*55
1509426445.33,1273,7.06,72562.3,-15.65,-18.69,-18.55,0,*5F
1509426446.57,1274,7.06,72554.0,-15.67,-18.93,-19.37,0,*5A
1509426447.81,1275,7.0,72560.5,-15.65,-19.37,-19.99,0,*52
1509426449.1,1276,7.0,72532.8,-15.65,-20.35,-20.83,0,*58
1509426450.35,1277,7.06,72538.8,-15.65,-20.79,-21.09,0,*52
1509426451.62,1278,7.06,72488.5,-15.65,-20.99,-20.63,0,*5E
1509426452.87,1279,7.06,72514.5,-15.65,-20.43,-20.43,0,*5A
1509426454.08,1280,7.06,72562.5,-15.67,-20.63,-21.09,0,*53
1509426455.29,1281,7.06,72532.0,-15.67,-21.73,-21.73,0,*5F
1509426456.52,1282,7.06,72498.3,-15.65,-21.39,-21.09,0,*5D
1509426457.78,1283,7.06,72506.3,-15.67,-20.83,-20.83,0,*5D
1509426459.04,1284,7.0,72434.3,-15.67,-20.79,-20.83,0,*5F
1509426460.31,1285,7.06,72420.3,-15.65,-20.99,-20.43,0,*5E
1509426461.54,1286,7.06,72530.5,-15.67,-20.35,-19.71,0,*52
1509426462.75,1287,7.06,72502.8,-15.67,-19.37,-18.83,0,*57
1509426463.99,1288,7.06,72504.5,-15.67,-18.93,-18.49,0,*51
1509426465.2,1289,7.06,72528.8,-15.67,-18.65,-18.99,0,*54
1509426466.43,1290,7.06,72510.3,-15.67,-19.41,-19.99,0,*5A
1509426467.67,1291,7.06,72514.5,-15.67,-21.23,-21.73,0,*5B
1509426468.94,1292,7.06,72500.8,-15.65,-22.53,-22.47,0,*5A
1509426470.18,1293,7.06,72494.5,-15.69,-22.87,-22.53,0,*5B
1509426471.44,1294,7.06,72534.0,-15.67,-22.17,-22.21,0,*5E
1509426472.65,1295,7.06,72564.0,-15.67,-21.93,-21.73,0,*54
1509426473.89,1296,7.06,72564.5,-15.67,-22.31,-21.63,0,*5D
1509426475.1,1297,7.06,72576.3,-15.67,-21.43,-21.47,0,*5C
1509426476.34,1298,7.06,72548.8,-15.67,-22.53,-22.17,0,*57
1509426477.55,1299,7.06,72558.0,-15.67,-22.67,-22.37,0,*53
1509426478.81,1300,7.06,72552.3,-15.71,-23.03,-22.73,0,*56
1509426480.07,1301,7.06,72554.5,-15.69,-23.19,-22.41,0,*54
1509426481.33,1302,7.06,72558.8,-15.69,-21.33,-21.13,0,*59
1509426482.6,1303,7.06,72552.8,-15.69,-21.67,-21.43,0,*5C
1509426483.86,1304,7.06,72548.3,-15.69,-22.37,-22.21,0,*5A
1509426485.08,1305,7.06,72558.3,-15.71,-22.53,-22.27,0,*56
1509426486.32,1306,7.06,72518.8,-15.69,-22.53,-21.77,0,*5A
1509426487.58,1307,7.0,72418.5,-15.71,-20.99,-19.61,0,*5A
1509426488.82,1308,7.06,72484.5,-15.69,-18.99,-18.25,0,*56
1509426490.08,1309,7.06,72488.3,-15.71,-17.63,-17.59,0,*50
1509426491.32,1310,7.06,72508.8,-15.71,-17.49,-17.59,0,*50
1509426492.56,1311,7.06,72524.0,-15.71,-17.79,-17.83,0,*55
1509426493.8,1312,7.06,72512.0,-15.69,-18.11,-18.11,0,*5A
1509426495.06,1313,7.06,72504.5,-15.69,-18.35,-18.41,0,*58
1509426496.36,1314,7.06,72482.5,-15.69,-19.31,-19.65,0,*5D
1509426497.62,1315,7.06,72538.5,-15.69,-20.39,-19.81,0,*54
1509426498.9,1316,7.06,72510.5,-15.69,-20.19,-19.31,0,*5E
1509426500.17,1317,7.06,72496.8,-15.69,-19.27,-18.25,0,*5C
1509426501.43,1318,7.06,72482.5,-15.69,-18.25,-17.79,0,*56
1509426502.72,1319,7.06,72472.5,-15.69,-18.59,-18.55,0,*5D
1509426503.96,1320,7.06,72508.0,-15.69,-19.13,-18.49,0,*55
1509426505.18,1321,7.06,72518.5,-15.67,-18.99,-17.87,0,*54
1509426506.47,1322,7.06,72528.0,-15.65,-17.59,-17.11,0,*59
1509426507.7,1323,7.06,72568.3,-15.67,-17.31,-17.25,0,*53
1509426508.93,1324,7.06,72560.8,-15.67,-17.93,-18.21,0,*57